Skip Page Navigation
NASA JPL Caltech
NASA Logo - Jet Propulsion Laboratory + View the NASA Portal
+ Center for Near-Earth Object Studies
JPL Home Earth Solar System Stars & Galaxies Technology
JPL Solar System Dynamics
BODIES ORBITS EPHEMERIDES TOOLS PHYSICAL DATA DISCOVERY FAQ SITE MAP
IMPORTANT: The SSD Announcement email list is now available. Major changes are coming in the near future, including possible hostname and/or URL changes. To be notified of such changes, subscribe to this email list.

Please visit this page for more details.


JPL Small-Body Database Browser
Search: [ help ]  
233463 (2006 KF16)
Classification: Main-belt Asteroid          SPK-ID: 2233463
Ephemeris | Orbit Diagram | Orbital Elements | Mission Design | Physical Parameters | Discovery Circumstances | Close-Approach Data ]

[ show orbit diagram ]
Orbital Elements at Epoch 2458600.5 (2019-Apr-27.0) TDB
Reference: JPL 12 (heliocentric ecliptic J2000)
 Element Value Uncertainty (1-sigma)   Units 
e .2287091327882399 7.1277e-08  
a 3.072650918959557 5.1431e-08 au
q 2.369907591923329 2.1375e-07 au
i 17.31067205898 9.9208e-06 deg
node 133.4861049594556 2.721e-05 deg
peri 143.5736134779523 4.3587e-05 deg
M 124.2171729138232 4.1042e-05 deg
tp 2457921.691296925411
(2017-Jun-17.19129693)
0.0002099 TDB
period 1967.289444563247
5.39
4.9394e-05
1.352e-07
d
yr
n .1829928996950028 4.5945e-09 deg/d
Q 3.775394245995786 6.3194e-08 au
  Orbit Determination Parameters
   # obs. used (total)      198  
   data-arc span      6431 days (17.61 yr)  
   first obs. used      2001-06-15  
   last obs. used      2019-01-23  
   planetary ephem.      DE431  
   SB-pert. ephem.      SB431-N16  
   condition code      0  
   norm. resid. RMS      .61371  
   source      ORB  
   producer      Otto Matic  
   solution date      2019-Jul-14 07:18:43  

Additional Information
 Earth MOID = 1.37496 au 
 Jupiter MOID = 1.57504 au 
 T_jup = 3.122 
[ show covariance matrix ]

Ephemeris | Orbit Diagram | Orbital Elements | Mission Design | Physical Parameters | Discovery Circumstances | Close-Approach Data ]

Physical Parameter Table
Parameter Symbol Value Units Sigma Reference Notes
absolute magnitude H 15.2   n/a MPO454688  

233463 (2006 KF16)          Discovered 2006-May-20 by NEAT at Palomar
Reference: 20100228/Numbers.arcLast Updated: 2010-03-03

[ show close-approach data ]
Alternate Designations
 2006 KF16 = 2005 CZ70 
Ephemeris | Orbit Diagram | Orbital Elements | Mission Design | Physical Parameters | Discovery Circumstances | Close-Approach Data ]
ABOUT SSD CREDITS/AWARDS PRIVACY/COPYRIGHT GLOSSARY LINKS
FirstGov 2019-Dec-15 21:27 UT
(server date/time)  
NASA Home Page
Site Manager:   Ryan S. Park
Webmaster  Alan B. Chamberlin